This is the latest recevied weather packets stored in our database for station/object W8RSN-13. If no packets are shown the sender has not sent any weather packets the latest 10 day(s).
| Time | Temp. | Humidity | Pressure | Rain* | Wind** | Luminosity | Snow |
|---|---|---|---|---|---|---|---|
| 1787960360 | 37.78° C | 27% | 1012.3 hPa | - | - | - | - |
| 1787960058 | 37.22° C | 26% | 1012.3 hPa | - | - | - | - |
| 1787959758 | 37.22° C | 26% | 1012.1 hPa | - | - | - | - |
| 1787959457 | 37.78° C | 26% | 1012 hPa | - | - | - | - |
| 1787959156 | 37.78° C | 26% | 1012.1 hPa | - | - | - | - |
| 1787958875 | 37.78° C | 26% | 1012.2 hPa | - | - | - | - |
| 1787958574 | 37.78° C | 26% | 1012 hPa | - | - | - | - |
| 1787958273 | 37.78° C | 27% | 1012.1 hPa | - | - | - | - |
| 1787957972 | 37.78° C | 26% | 1012.2 hPa | - | - | - | - |
| 1787957671 | 37.78° C | 27% | 1012.2 hPa | - | - | - | - |
| 1787957371 | 37.78° C | 26% | 1012.4 hPa | - | - | - | - |
| 1787957070 | 37.78° C | 27% | 1012.3 hPa | - | - | - | - |
| 1787956769 | 37.78° C | 26% | 1012.4 hPa | - | - | - | - |
| 1787956468 | 37.78° C | 27% | 1012.3 hPa | - | - | - | - |
| 1787956167 | 38.33° C | 27% | 1012.4 hPa | - | - | - | - |
| 1787955866 | 38.89° C | 27% | 1012.4 hPa | - | - | - | - |
| 1787955565 | 38.33° C | 28% | 1012.4 hPa | - | - | - | - |
| 1787955265 | 38.89° C | 27% | 1012.5 hPa | - | - | - | - |
| 1787954964 | 38.89° C | 28% | 1012.5 hPa | - | - | - | - |
| 1787954663 | 38.33° C | 30% | 1012.5 hPa | - | - | - | - |
| 1787954362 | 37.78° C | 30% | 1012.5 hPa | - | - | - | - |
| 1787954061 | 38.89° C | 29% | 1012.7 hPa | - | - | - | - |
| 1787953760 | 38.89° C | 29% | 1012.4 hPa | - | - | - | - |
| 1787953459 | 38.33° C | 30% | 1012.7 hPa | - | - | - | - |
| 1787953158 | 37.78° C | 30% | 1012.7 hPa | - | - | - | - |
* Rain since midnight (hover to see other rain measurements)
** Current wind speed in m/s (hover to see current wind gust speed)